Location: Unspecified
(0.0000°N, 0.0000°E)
Time: 22:18:01
(UTC+00:00)

ATLAS 5 CENTAUR R/B DEB - Visible Passes

Search period start: 29 April 2025 00:00
Search period end: 09 May 2025 00:00
Orbit: 8876 x 34277 km, 12.6° (Epoch: 27 April)

Date Brightness Start Highest point End Pass type
(mag) Time Alt. Az. Time Alt. Az. Time Alt. Az.
29 Apr ? 11:08:46 10° WSW 19:56:44 66° NE 23:13:15 10° E visible
30 Apr ? 13:23:57 10° WSW 15:46:03 83° NW 01:31:25 10° E visible
01 May ? 15:46:09 10° W 18:37:17 53° WNW 03:46:13 10° ESE visible
02 May ? 18:41:50 10° W 20:41:16 21° W 06:06:46 10° ESE daylight
05 May ? 08:56:22 10° WSW 17:53:43 42° ENE 20:49:13 10° E visible
06 May ? 11:12:23 10° WSW 20:05:23 71° NE 23:18:21 10° E visible
07 May ? 13:28:11 10° WSW 16:11:09 77° NW 01:35:04 10° ESE visible
